Bremerton, WA

8:02 AM PST on December 06, 2019 (GMT -0800)
Bremerton National

Weather History for KPWT - August, 2019

Change the Weather History Date:

Tuesday, August 27, 2019

  Actual Average Record
Temperature  
Mean Temperature 72 °F -  
Max Temperature 84 °F 72 °F 87 °F (2014)
Min Temperature 60 °F 49 °F 42 °F (2010)
Cooling Degree Days 7    
Growing Degree Days 22 (Base 50)    
Moisture  
Dew Point 52 °F    
Average Humidity 52    
Maximum Humidity 67    
Minimum Humidity 34    
Precipitation  
Precipitation 0.00 in - - ()
Sea Level Pressure  
Sea Level Pressure 30.04 in    
Wind  
Wind Speed 11 mph ()    
Max Wind Speed 18 mph    
Max Gust Speed 24 mph    
Visibility 10.0 miles    
Events      
Averages and records for this station are not official NWS values.
T = Trace of Precipitation, MM = Missing Value Source: Averaged Metar Reports

Daily Weather History Graph

Daily Weather History Graph

Search for Another Location

Airport or City:

Astronomy

Aug. 27, 2019 Rise Set
Actual Time 6:22 AM PDT 8:01 PM PDT
Civil Twilight 5:50 AM PDT 8:33 PM PDT
Nautical Twilight 5:11 AM PDT 9:12 PM PDT
Astronomical Twilight 4:28 AM PDT 9:55 PM PDT
Moon 2:37 AM PDT (8/27) 6:41 PM PDT (8/27)
Length of Visible Light 14h 42m
Length of Day
13h 38m
Waning Crescent, 10% of the Moon is Illuminated
Aug 27
Waning Crescent
Aug 30
New
Sep 5
First Quarter
Sep 13
Full
Sep 21
Last Quarter

Hourly Weather History & Observations

Time (PDT) Temp. Heat Index Dew Point Humidity Pressure Visibility Wind Dir Wind Speed Gust Speed Precip Events Conditions
12:56 AM 60.1 °F - 48.9 °F 67% 30.15 in 10.0 mi ENE 6.9 mph - N/A   Clear
1:56 AM 60.1 °F - 48.0 °F 64% 30.14 in 10.0 mi ENE 8.1 mph - N/A   Clear
2:56 AM 60.1 °F - 48.9 °F 67% 30.13 in 10.0 mi ENE 10.4 mph - N/A   Clear
3:56 AM 60.1 °F - 48.0 °F 64% 30.12 in 10.0 mi NE 11.5 mph - N/A   Clear
4:56 AM 60.1 °F - 48.0 °F 64% 30.11 in 10.0 mi NE 15.0 mph - N/A   Clear
5:56 AM 61.0 °F - 48.9 °F 64% 30.10 in 10.0 mi NE 16.1 mph - N/A   Clear
6:56 AM 62.1 °F - 48.9 °F 62% 30.10 in 10.0 mi NE 13.8 mph - N/A   Clear
7:56 AM 64.0 °F - 51.1 °F 63% 30.10 in 10.0 mi NE 17.3 mph 21.9 mph N/A   Clear
8:56 AM 66.9 °F - 53.1 °F 61% 30.10 in 10.0 mi NE 17.3 mph 24.2 mph N/A   Clear
9:56 AM 71.1 °F - 54.0 °F 55% 30.09 in 10.0 mi NE 17.3 mph 24.2 mph N/A   Clear
10:56 AM 75.0 °F - 55.0 °F 50% 30.09 in 10.0 mi NE 15.0 mph 19.6 mph N/A   Clear
11:56 AM 77.0 °F - 54.0 °F 45% 30.07 in 10.0 mi NE 16.1 mph 21.9 mph N/A   Clear
12:56 PM 79.0 °F - 54.0 °F 42% 30.05 in 10.0 mi NE 17.3 mph 23.0 mph N/A   Clear
1:56 PM 81.0 °F 80.5 °F 54.0 °F 39% 30.02 in 10.0 mi NE 18.4 mph 24.2 mph N/A   Clear
2:56 PM 82.9 °F 81.9 °F 54.0 °F 37% 30.00 in 10.0 mi NE 16.1 mph - N/A   Clear
3:56 PM 84.0 °F 82.6 °F 54.0 °F 35% 29.97 in 10.0 mi NE 13.8 mph - N/A   Clear
4:56 PM 84.9 °F 83.3 °F 54.0 °F 34% 29.95 in 10.0 mi NE 13.8 mph 20.7 mph N/A   Clear
5:56 PM 82.9 °F - 52.0 °F 34% 29.94 in 10.0 mi NE 13.8 mph - N/A   Clear
6:56 PM 80.1 °F - 51.1 °F 36% 29.93 in 10.0 mi NE 12.7 mph - N/A   Clear
8:56 PM 73.0 °F - 51.1 °F 46% 29.92 in 10.0 mi NE 13.8 mph - N/A   Clear
9:56 PM 71.1 °F - 52.0 °F 51% 29.92 in 10.0 mi NE 13.8 mph - N/A   Clear
10:56 PM 69.1 °F - 53.1 °F 57% 29.92 in 10.0 mi NE 11.5 mph - N/A   Clear
11:56 PM 68.0 °F - 53.1 °F 59% 29.93 in 10.0 mi NE 9.2 mph - N/A   Clear